CW1844 Weather Reports


time (UTC)temp
C
wind
direction
speed
KPH
gust
KPH
rain 1hr
cm
rain 24hr
cm
rain mn
cm
humidity
%
barometer
mb
20260503211932 16 207 0.0 0.0 0.00 0.00 0.00 61 1012.7
20260503210910 16 360 0.0 0.0 0.00 0.00 0.00 62 1012.6
20260503205909 16 35 0.0 0.0 0.00 0.00 0.00 63 1012.6
20260503203933 16 192 0.0 0.0 0.00 0.00 0.00 62 1012.8
20260503202915 16 155 0.0 0.0 0.00 0.00 0.00 63 1012.8
20260503201934 16 165 0.0 0.0 0.00 0.00 0.00 63 1012.9
20260503200910 15 152 0.0 0.0 0.00 0.00 0.00 65 1012.9
20260503195910 15 160 0.0 0.0 0.00 0.00 0.00 66 1012.9
20260503194909 15 56 0.0 0.0 0.00 0.00 0.00 66 1012.8
20260503193918 15 88 0.0 0.0 0.00 0.00 0.00 66 1012.9
20260503192909 15 110 0.0 0.0 0.00 0.00 0.00 68 1012.9
20260503191909 14 130 0.0 0.0 0.00 0.00 0.00 69 1012.9
20260503185909 14 68 0.0 0.0 0.00 0.00 0.00 71 1012.8
20260503184909 15 70 0.0 0.0 0.00 0.00 0.00 71 1012.9
20260503182909 14 111 0.0 0.0 0.00 0.00 0.00 71 1012.9
20260503181917 14 30 0.0 0.0 0.00 0.00 0.00 75 1012.9
20260503175909 13 279 0.0 0.0 0.00 0.00 0.00 77 1012.8
20260503174909 13 312 0.0 0.0 0.00 0.00 0.00 78 1012.9
20260503173918 13 77 0.0 0.0 0.00 0.00 0.00 79 1012.9
20260503172909 12 340 0.0 0.0 0.00 0.00 0.00 81 1012.8
20260503171917 12 355 0.0 0.0 0.00 0.00 0.00 81 1012.8
20260503170909 12 202 0.0 0.0 0.00 0.00 0.00 82 1012.9
20260503150917 11 171 0.0 0.0 0.00 0.00 0.00 90 1012.4
20260503130932 10 348 0.0 0.0 0.00 0.00 0.00 90 1011.1
20260503080918 11 5 0.0 0.0 0.00 0.00 0.00 85 1012.0
20260503072942 11 5 0.0 0.0 0.00 0.00 0.00 85 1011.8
20260503070946 11 5 0.0 0.0 0.00 0.00 0.00 85 1011.8
20260503054912 11 327 0.0 0.0 0.00 0.00 0.00 83 1011.9
20260503053917 11 355 0.0 0.0 0.00 0.00 0.00 83 1012.0
20260503051924 11 5 0.0 0.0 0.00 0.00 0.00 83 1012.1
20260503050914 11 5 0.0 0.0 0.00 0.00 0.00 83 1012.1
20260503045907 11 5 0.0 0.0 0.00 0.00 0.00 83 1012.1
20260503044908 11 9 0.0 0.0 0.00 0.00 0.00 83 1012.0
20260503043935 11 40 0.0 0.0 0.00 0.00 0.00 82 1011.9
20260503042936 11 40 0.0 0.0 0.00 0.00 0.00 82 1011.8
20260503041907 11 40 0.0 0.0 0.00 0.00 0.00 82 1011.7
20260503040910 12 40 0.0 0.0 0.00 0.00 0.00 82 1011.6
20260503035914 12 53 0.0 0.0 0.00 0.00 0.00 82 1011.5
20260503034921 12 53 0.0 0.0 0.00 0.00 0.00 81 1011.3
20260503033940 12 9 0.0 0.0 0.00 0.00 0.00 81 1011.2
20260503032952 12 9 0.0 0.0 0.00 0.00 0.00 81 1011.1
20260503031907 12 13 0.0 0.0 0.00 0.00 0.00 81 1011.0
20260503025906 12 348 0.0 0.0 0.00 0.00 0.00 80 1010.9
20260503024916 12 340 0.0 0.0 0.00 0.00 0.00 80 1010.8
20260503022940 13 350 0.0 0.0 0.00 0.00 0.00 78 1010.5
20260503021907 13 360 0.0 0.0 0.00 0.00 0.00 78 1010.5
20260503020907 13 61 0.0 0.0 0.00 0.00 0.00 76 1010.5
20260503015906 14 24 0.0 0.0 0.00 0.00 0.00 75 1010.5
20260503014915 15 348 0.0 0.0 0.00 0.00 0.00 75 1010.6
20260503013929 15 340 0.0 0.0 0.00 0.00 0.00 74 1010.7
20260503012953 15 345 0.0 0.0 0.00 0.00 0.00 73 1010.7
20260503011906 16 324 0.0 0.0 0.00 0.00 0.00 72 1010.7
20260503005917 16 355 0.0 0.0 0.00 0.00 0.00 71 1010.6
20260503004918 16 355 0.0 0.0 0.00 0.00 0.00 69 1010.6
20260503002938 17 281 0.0 0.0 0.00 0.00 0.00 67 1010.7
20260502235947 18 312 0.0 0.0 0.00 0.00 0.00 65 1010.7
20260502234938 18 219 0.0 0.0 0.00 0.00 0.00 64 1010.7
20260502233926 18 28 0.0 0.0 0.00 0.00 0.00 64 1010.7
20260502231906 19 295 0.0 0.0 0.00 0.00 0.00 65 1010.9
20260502230911 20 30 0.0 0.0 0.00 0.00 0.00 61 1010.9
20260502225912 20 22 0.0 0.0 0.00 0.00 0.00 61 1011.1
20260502224920 20 273 0.0 0.0 0.00 0.00 0.00 61 1011.3
20260502222913 21 344 0.0 0.0 0.00 0.00 0.00 57 1011.6
20260502220914 22 300 0.0 0.0 0.00 0.00 0.00 57 1012.0
20260502215920 21 161 0.0 0.0 0.00 0.00 0.00 57 1012.2
20260502214911 21 146 0.0 0.0 0.00 0.00 0.00 57 1012.3
20260502213939 21 164 0.0 0.0 0.00 0.00 0.00 58 1012.5
20260502212914 20 98 0.0 0.0 0.00 0.00 0.00 58 1012.5